Export;EXP-2023-01 (20230705 21:24);;;StationsCode;NL49551;NL49553
Periode;20220101 00:00 - 20230101 00:00;;;BeheerderMeetStation;GGD A'dam;GGD A'dam
Bron;https://data.rivm.nl/data/luchtmeetnet;;;StationsNaam;IJmuiden-Kanaaldijk;Wijk aan Zee-Burgemeester Rothestraat
Beschrijving data;https://data.rivm.nl/data/luchtmeetnet/readme.pdf;;;Latitude,Longitude;(52.463039,4.601842);(52.493992,4.601986)
Accreditatienummer;https://www.rva.nl/alle-geaccrediteerden/;;;StationsGebied;stad;stad
;;;;StationsType;industrie;industrie
;;;;Meetprincipe;Ultraviolet fluorescentie (UV-F);Ultraviolet fluorescentie (UV-F)
;;;;Meetopstelling;H2S metingen met een Thermo monitor;H2S metingen met een Thermo monitor
;;;;Accreditatienummer;nvt;nvt
Component;Bep.periode;Eenheid; Begindatumtijd;Einddatumtijd;NL49551;NL49553
H2S;uur;�g/m�;20220101 00:00;20220101 01:00;1.3;0.7
H2S;uur;�g/m�;20220101 01:00;20220101 02:00;0.8;1.5
H2S;uur;�g/m�;20220101 02:00;20220101 03:00;1.2;0.9
H2S;uur;�g/m�;20220101 03:00;20220101 04:00;1.2;0.7
H2S;uur;�g/m�;20220101 04:00;20220101 05:00;1.2;1.7
H2S;uur;�g/m�;20220101 05:00;20220101 06:00;1.6;0.8
H2S;uur;�g/m�;20220101 06:00;20220101 07:00;1.8;0.8
H2S;uur;�g/m�;20220101 07:00;20220101 08:00;1.5;
H2S;uur;�g/m�;20220101 08:00;20220101 09:00;1.3;3.4
H2S;uur;�g/m�;20220101 09:00;20220101 10:00;1.2;2.4
H2S;uur;�g/m�;20220101 10:00;20220101 11:00;1.6;2
H2S;uur;�g/m�;20220101 11:00;20220101 12:00;1.3;1.7
H2S;uur;�g/m�;20220101 12:00;20220101 13:00;1.2;0.8
H2S;uur;�g/m�;20220101 13:00;20220101 14:00;1.8;1
H2S;uur;�g/m�;20220101 14:00;20220101 15:00;1.3;1.3
H2S;uur;�g/m�;20220101 15:00;20220101 16:00;1;2.6
H2S;uur;�g/m�;20220101 16:00;20220101 17:00;1.1;3.5
H2S;uur;�g/m�;20220101 17:00;20220101 18:00;1.3;3.3
H2S;uur;�g/m�;20220101 18:00;20220101 19:00;1.7;1.2
H2S;uur;�g/m�;20220101 19:00;20220101 20:00;1.1;4
H2S;uur;�g/m�;20220101 20:00;20220101 21:00;1.1;4.6
H2S;uur;�g/m�;20220101 21:00;20220101 22:00;1.4;4.2
H2S;uur;�g/m�;20220101 22:00;20220101 23:00;1.3;5.1
H2S;uur;�g/m�;20220101 23:00;20220102 00:00;0.9;4.2
H2S;uur;�g/m�;20220102 00:00;20220102 01:00;1.3;5
H2S;uur;�g/m�;20220102 01:00;20220102 02:00;1.4;4.5
H2S;uur;�g/m�;20220102 02:00;20220102 03:00;1;5.3
H2S;uur;�g/m�;20220102 03:00;20220102 04:00;1.1;4.1
H2S;uur;�g/m�;20220102 04:00;20220102 05:00;1.1;2.8
H2S;uur;�g/m�;20220102 05:00;20220102 06:00;1.5;3.1
H2S;uur;�g/m�;20220102 06:00;20220102 07:00;1.2;5.3
H2S;uur;�g/m�;20220102 07:00;20220102 08:00;0.8;5.2
H2S;uur;�g/m�;20220102 08:00;20220102 09:00;1.7;2
H2S;uur;�g/m�;20220102 09:00;20220102 10:00;1.1;1.7
H2S;uur;�g/m�;20220102 10:00;20220102 11:00;1;0.3
H2S;uur;�g/m�;20220102 11:00;20220102 12:00;;0.6
H2S;uur;�g/m�;20220102 12:00;20220102 13:00;1.1;0.5
H2S;uur;�g/m�;20220102 13:00;20220102 14:00;1.1;0.3
H2S;uur;�g/m�;20220102 14:00;20220102 15:00;1.1;0.3
H2S;uur;�g/m�;20220102 15:00;20220102 16:00;1.3;0.4
H2S;uur;�g/m�;20220102 16:00;20220102 17:00;0.8;0.9
H2S;uur;�g/m�;20220102 17:00;20220102 18:00;1.1;1
H2S;uur;�g/m�;20220102 18:00;20220102 19:00;1.6;2
H2S;uur;�g/m�;20220102 19:00;20220102 20:00;0.8;1.6
H2S;uur;�g/m�;20220102 20:00;20220102 21:00;1.5;0.7
H2S;uur;�g/m�;20220102 21:00;20220102 22:00;1.1;0.6
H2S;uur;�g/m�;20220102 22:00;20220102 23:00;1.3;0.7
H2S;uur;�g/m�;20220102 23:00;20220103 00:00;1.3;0.5
H2S;uur;�g/m�;20220103 00:00;20220103 01:00;0.9;0.3
H2S;uur;�g/m�;20220103 01:00;20220103 02:00;1.1;0.3
H2S;uur;�g/m�;20220103 02:00;20220103 03:00;1.1;0.4
H2S;uur;�g/m�;20220103 03:00;20220103 04:00;1.2;0.3
H2S;uur;�g/m�;20220103 04:00;20220103 05:00;0.9;0.3
H2S;uur;�g/m�;20220103 05:00;20220103 06:00;1.2;0.3
H2S;uur;�g/m�;20220103 06:00;20220103 07:00;1.3;1
H2S;uur;�g/m�;20220103 07:00;20220103 08:00;1.1;0.4
H2S;uur;�g/m�;20220103 08:00;20220103 09:00;0.9;0.5
H2S;uur;�g/m�;20220103 09:00;20220103 10:00;1.6;
H2S;uur;�g/m�;20220103 10:00;20220103 11:00;1.2;0.6
H2S;uur;�g/m�;20220103 11:00;20220103 12:00;1.1;0.5
H2S;uur;�g/m�;20220103 12:00;20220103 13:00;1.2;1
H2S;uur;�g/m�;20220103 13:00;20220103 14:00;1.5;1.1
H2S;uur;�g/m�;20220103 14:00;20220103 15:00;1;0.6
H2S;uur;�g/m�;20220103 15:00;20220103 16:00;1.3;0.8
H2S;uur;�g/m�;20220103 16:00;20220103 17:00;1;0.5
H2S;uur;�g/m�;20220103 17:00;20220103 18:00;0.9;0.8
H2S;uur;�g/m�;20220103 18:00;20220103 19:00;1.3;0.4
H2S;uur;�g/m�;20220103 19:00;20220103 20:00;1.2;0.4
H2S;uur;�g/m�;20220103 20:00;20220103 21:00;1.2;0.7
H2S;uur;�g/m�;20220103 21:00;20220103 22:00;1.2;0.3
H2S;uur;�g/m�;20220103 22:00;20220103 23:00;1.1;0.4
H2S;uur;�g/m�;20220103 23:00;20220104 00:00;1.4;0.2
H2S;uur;�g/m�;20220104 00:00;20220104 01:00;1.2;0.2
H2S;uur;�g/m�;20220104 01:00;20220104 02:00;1;0.5
H2S;uur;�g/m�;20220104 02:00;20220104 03:00;1.1;0.5
H2S;uur;�g/m�;20220104 03:00;20220104 04:00;1.1;1.2
H2S;uur;�g/m�;20220104 04:00;20220104 05:00;0.9;1.1
H2S;uur;�g/m�;20220104 05:00;20220104 06:00;1.7;0.5
H2S;uur;�g/m�;20220104 06:00;20220104 07:00;1.6;0.9
H2S;uur;�g/m�;20220104 07:00;20220104 08:00;1.1;0.5
H2S;uur;�g/m�;20220104 08:00;20220104 09:00;1.1;1
H2S;uur;�g/m�;20220104 09:00;20220104 10:00;1.1;0.6
H2S;uur;�g/m�;20220104 10:00;20220104 11:00;2.5;0.6
H2S;uur;�g/m�;20220104 11:00;20220104 12:00;2.5;0.8
H2S;uur;�g/m�;20220104 12:00;20220104 13:00;4.5;0.4
H2S;uur;�g/m�;20220104 13:00;20220104 14:00;;0.5
H2S;uur;�g/m�;20220104 14:00;20220104 15:00;3.1;0.7
H2S;uur;�g/m�;20220104 15:00;20220104 16:00;2.6;0.5
H2S;uur;�g/m�;20220104 16:00;20220104 17:00;1.7;0.7
H2S;uur;�g/m�;20220104 17:00;20220104 18:00;2;0.6
H2S;uur;�g/m�;20220104 18:00;20220104 19:00;2.2;0.3
H2S;uur;�g/m�;20220104 19:00;20220104 20:00;1.6;0.3
H2S;uur;�g/m�;20220104 20:00;20220104 21:00;1.6;0.8
H2S;uur;�g/m�;20220104 21:00;20220104 22:00;1.6;0.3
H2S;uur;�g/m�;20220104 22:00;20220104 23:00;1.4;0.4
H2S;uur;�g/m�;20220104 23:00;20220105 00:00;0.8;0.7
H2S;uur;�g/m�;20220105 00:00;20220105 01:00;1.4;0.2
H2S;uur;�g/m�;20220105 01:00;20220105 02:00;1.2;0.4
H2S;uur;�g/m�;20220105 02:00;20220105 03:00;1.3;0.4
H2S;uur;�g/m�;20220105 03:00;20220105 04:00;1.4;0.7
H2S;uur;�g/m�;20220105 04:00;20220105 05:00;0.8;0.1
H2S;uur;�g/m�;20220105 05:00;20220105 06:00;1.1;0.7
H2S;uur;�g/m�;20220105 06:00;20220105 07:00;1.2;0.4
H2S;uur;�g/m�;20220105 07:00;20220105 08:00;1.2;0.7
H2S;uur;�g/m�;20220105 08:00;20220105 09:00;1.6;0.5
H2S;uur;�g/m�;20220105 09:00;20220105 10:00;1.3;0.5
H2S;uur;�g/m�;20220105 10:00;20220105 11:00;1.4;0.7
H2S;uur;�g/m�;20220105 11:00;20220105 12:00;1.2;
H2S;uur;�g/m�;20220105 12:00;20220105 13:00;1.4;0.7
H2S;uur;�g/m�;20220105 13:00;20220105 14:00;1.5;0.4
H2S;uur;�g/m�;20220105 14:00;20220105 15:00;1.1;0.6
H2S;uur;�g/m�;20220105 15:00;20220105 16:00;1.4;0.7
H2S;uur;�g/m�;20220105 16:00;20220105 17:00;3.4;0.4
H2S;uur;�g/m�;20220105 17:00;20220105 18:00;3.7;0.7
H2S;uur;�g/m�;20220105 18:00;20220105 19:00;1.9;0.7
H2S;uur;�g/m�;20220105 19:00;20220105 20:00;4;0.3
H2S;uur;�g/m�;20220105 20:00;20220105 21:00;4.2;0.5
H2S;uur;�g/m�;20220105 21:00;20220105 22:00;3;0.6
H2S;uur;�g/m�;20220105 22:00;20220105 23:00;2.7;0.5
H2S;uur;�g/m�;20220105 23:00;20220106 00:00;3.6;0.4
H2S;uur;�g/m�;20220106 00:00;20220106 01:00;3.5;0.5
H2S;uur;�g/m�;20220106 01:00;20220106 02:00;2.8;0.5
H2S;uur;�g/m�;20220106 02:00;20220106 03:00;6.7;0.6
H2S;uur;�g/m�;20220106 03:00;20220106 04:00;8.7;0.7
H2S;uur;�g/m�;20220106 04:00;20220106 05:00;4.4;0.2
H2S;uur;�g/m�;20220106 05:00;20220106 06:00;1.7;0.4
H2S;uur;�g/m�;20220106 06:00;20220106 07:00;3;0.4
H2S;uur;�g/m�;20220106 07:00;20220106 08:00;1.4;0.6
H2S;uur;�g/m�;20220106 08:00;20220106 09:00;1.4;0.5
H2S;uur;�g/m�;20220106 09:00;20220106 10:00;1.6;0.3
H2S;uur;�g/m�;20220106 10:00;20220106 11:00;1.5;0.3
H2S;uur;�g/m�;20220106 11:00;20220106 12:00;1.3;0.4
H2S;uur;�g/m�;20220106 12:00;20220106 13:00;1.2;1.5
H2S;uur;�g/m�;20220106 13:00;20220106 14:00;1.7;0.7
H2S;uur;�g/m�;20220106 14:00;20220106 15:00;1.3;0.6
H2S;uur;�g/m�;20220106 15:00;20220106 16:00;;1.6
H2S;uur;�g/m�;20220106 16:00;20220106 17:00;1.3;0.9
H2S;uur;�g/m�;20220106 17:00;20220106 18:00;1.2;0.8
H2S;uur;�g/m�;20220106 18:00;20220106 19:00;1.3;0.5
H2S;uur;�g/m�;20220106 19:00;20220106 20:00;1.4;3.5
H2S;uur;�g/m�;20220106 20:00;20220106 21:00;1.8;0.7
H2S;uur;�g/m�;20220106 21:00;20220106 22:00;1.3;1.9
H2S;uur;�g/m�;20220106 22:00;20220106 23:00;1.2;5.5
H2S;uur;�g/m�;20220106 23:00;20220107 00:00;1;2.8
H2S;uur;�g/m�;20220107 00:00;20220107 01:00;1;2.9
H2S;uur;�g/m�;20220107 01:00;20220107 02:00;1.4;2.8
H2S;uur;�g/m�;20220107 02:00;20220107 03:00;1.4;2.2
H2S;uur;�g/m�;20220107 03:00;20220107 04:00;1.5;4.8
H2S;uur;�g/m�;20220107 04:00;20220107 05:00;1.3;2.2
H2S;uur;�g/m�;20220107 05:00;20220107 06:00;1.1;1.4
H2S;uur;�g/m�;20220107 06:00;20220107 07:00;1.4;2
H2S;uur;�g/m�;20220107 07:00;20220107 08:00;1;0.5
H2S;uur;�g/m�;20220107 08:00;20220107 09:00;1.2;0.6
H2S;uur;�g/m�;20220107 09:00;20220107 10:00;1.7;0.2
H2S;uur;�g/m�;20220107 10:00;20220107 11:00;1;0.4
H2S;uur;�g/m�;20220107 11:00;20220107 12:00;1.7;0.3
H2S;uur;�g/m�;20220107 12:00;20220107 13:00;1.3;0.4
H2S;uur;�g/m�;20220107 13:00;20220107 14:00;0.9;
H2S;uur;�g/m�;20220107 14:00;20220107 15:00;1;0.2
H2S;uur;�g/m�;20220107 15:00;20220107 16:00;1.4;0.6
H2S;uur;�g/m�;20220107 16:00;20220107 17:00;1.6;0.3
H2S;uur;�g/m�;20220107 17:00;20220107 18:00;1.6;0.4
H2S;uur;�g/m�;20220107 18:00;20220107 19:00;1.7;0.5
H2S;uur;�g/m�;20220107 19:00;20220107 20:00;1;0.5
H2S;uur;�g/m�;20220107 20:00;20220107 21:00;1.2;0.7
H2S;uur;�g/m�;20220107 21:00;20220107 22:00;1.6;0.5
H2S;uur;�g/m�;20220107 22:00;20220107 23:00;1.4;0.7
H2S;uur;�g/m�;20220107 23:00;20220108 00:00;0.8;0.3
H2S;uur;�g/m�;20220108 00:00;20220108 01:00;1.7;0.2
H2S;uur;�g/m�;20220108 01:00;20220108 02:00;1.5;0.8
H2S;uur;�g/m�;20220108 02:00;20220108 03:00;1.3;0.8
H2S;uur;�g/m�;20220108 03:00;20220108 04:00;1.1;0.3
H2S;uur;�g/m�;20220108 04:00;20220108 05:00;1.2;0.3
H2S;uur;�g/m�;20220108 05:00;20220108 06:00;1.7;0.6
H2S;uur;�g/m�;20220108 06:00;20220108 07:00;0.9;0.6
H2S;uur;�g/m�;20220108 07:00;20220108 08:00;1.5;0.3
H2S;uur;�g/m�;20220108 08:00;20220108 09:00;0.7;0.5
H2S;uur;�g/m�;20220108 09:00;20220108 10:00;1.2;0.5
H2S;uur;�g/m�;20220108 10:00;20220108 11:00;1.4;2.1
H2S;uur;�g/m�;20220108 11:00;20220108 12:00;1.2;0.6
H2S;uur;�g/m�;20220108 12:00;20220108 13:00;1.1;0.6
H2S;uur;�g/m�;20220108 13:00;20220108 14:00;1.3;1.3
H2S;uur;�g/m�;20220108 14:00;20220108 15:00;1.2;0.6
H2S;uur;�g/m�;20220108 15:00;20220108 16:00;1.6;0.6
H2S;uur;�g/m�;20220108 16:00;20220108 17:00;1.3;1.3
H2S;uur;�g/m�;20220108 17:00;20220108 18:00;;0.9
H2S;uur;�g/m�;20220108 18:00;20220108 19:00;1.1;0.9
H2S;uur;�g/m�;20220108 19:00;20220108 20:00;2.1;1.5
H2S;uur;�g/m�;20220108 20:00;20220108 21:00;1.3;2.6
H2S;uur;�g/m�;20220108 21:00;20220108 22:00;1.5;3.2
H2S;uur;�g/m�;20220108 22:00;20220108 23:00;1.8;1.3
H2S;uur;�g/m�;20220108 23:00;20220109 00:00;0.8;0.6
H2S;uur;�g/m�;20220109 00:00;20220109 01:00;1.2;0.5
H2S;uur;�g/m�;20220109 01:00;20220109 02:00;1.4;0.4
H2S;uur;�g/m�;20220109 02:00;20220109 03:00;1.3;0.4
H2S;uur;�g/m�;20220109 03:00;20220109 04:00;1.4;0.7
H2S;uur;�g/m�;20220109 04:00;20220109 05:00;1.5;0.6
H2S;uur;�g/m�;20220109 05:00;20220109 06:00;1.4;0.8
H2S;uur;�g/m�;20220109 06:00;20220109 07:00;0.9;0.6
H2S;uur;�g/m�;20220109 07:00;20220109 08:00;1.5;0.5
H2S;uur;�g/m�;20220109 08:00;20220109 09:00;1.1;0.6
H2S;uur;�g/m�;20220109 09:00;20220109 10:00;1.2;0.2
H2S;uur;�g/m�;20220109 10:00;20220109 11:00;1.1;0.4
H2S;uur;�g/m�;20220109 11:00;20220109 12:00;1.3;0.6
H2S;uur;�g/m�;20220109 12:00;20220109 13:00;1.7;1
H2S;uur;�g/m�;20220109 13:00;20220109 14:00;1;0.8
H2S;uur;�g/m�;20220109 14:00;20220109 15:00;1.6;0.2
H2S;uur;�g/m�;20220109 15:00;20220109 16:00;1.4;
H2S;uur;�g/m�;20220109 16:00;20220109 17:00;1.3;0.5
H2S;uur;�g/m�;20220109 17:00;20220109 18:00;1.2;0.6
H2S;uur;�g/m�;20220109 18:00;20220109 19:00;1.4;0.5
H2S;uur;�g/m�;20220109 19:00;20220109 20:00;1.2;0.4
H2S;uur;�g/m�;20220109 20:00;20220109 21:00;0.9;0.1
H2S;uur;�g/m�;20220109 21:00;20220109 22:00;1.2;0.4
H2S;uur;�g/m�;20220109 22:00;20220109 23:00;1;0.6
H2S;uur;�g/m�;20220109 23:00;20220110 00:00;1.7;0.4
H2S;uur;�g/m�;20220110 00:00;20220110 01:00;1.1;0.2
H2S;uur;�g/m�;20220110 01:00;20220110 02:00;1;0.5
H2S;uur;�g/m�;20220110 02:00;20220110 03:00;1.4;1.7
H2S;uur;�g/m�;20220110 03:00;20220110 04:00;1.6;2.4
H2S;uur;�g/m�;20220110 04:00;20220110 05:00;1.6;2.3
H2S;uur;�g/m�;20220110 05:00;20220110 06:00;1.9;1.2
H2S;uur;�g/m�;20220110 06:00;20220110 07:00;1.6;2.3
H2S;uur;�g/m�;20220110 07:00;20220110 08:00;1.5;2.2
H2S;uur;�g/m�;20220110 08:00;20220110 09:00;1.8;2
H2S;uur;�g/m�;20220110 09:00;20220110 10:00;1.9;2.3
H2S;uur;�g/m�;20220110 10:00;20220110 11:00;2.1;3.5
H2S;uur;�g/m�;20220110 11:00;20220110 12:00;1.5;2.3
H2S;uur;�g/m�;20220110 12:00;20220110 13:00;2;3.1
H2S;uur;�g/m�;20220110 13:00;20220110 14:00;1.7;2.1
H2S;uur;�g/m�;20220110 14:00;20220110 15:00;1.8;2.5
H2S;uur;�g/m�;20220110 15:00;20220110 16:00;1.8;2.4
H2S;uur;�g/m�;20220110 16:00;20220110 17:00;1.9;1.8
H2S;uur;�g/m�;20220110 17:00;20220110 18:00;1.8;2.4
H2S;uur;�g/m�;20220110 18:00;20220110 19:00;1.8;2.1
H2S;uur;�g/m�;20220110 19:00;20220110 20:00;;1.8
H2S;uur;�g/m�;20220110 20:00;20220110 21:00;2;1.3
H2S;uur;�g/m�;20220110 21:00;20220110 22:00;1.7;2.6
H2S;uur;�g/m�;20220110 22:00;20220110 23:00;1.7;3.1
H2S;uur;�g/m�;20220110 23:00;20220111 00:00;1.1;3.2
H2S;uur;�g/m�;20220111 00:00;20220111 01:00;1.4;0.9
H2S;uur;�g/m�;20220111 01:00;20220111 02:00;1.7;0.7
H2S;uur;�g/m�;20220111 02:00;20220111 03:00;1.5;0.6
H2S;uur;�g/m�;20220111 03:00;20220111 04:00;1.7;0.8
H2S;uur;�g/m�;20220111 04:00;20220111 05:00;1.7;1
H2S;uur;�g/m�;20220111 05:00;20220111 06:00;1.4;1.4
H2S;uur;�g/m�;20220111 06:00;20220111 07:00;1.5;1.9
H2S;uur;�g/m�;20220111 07:00;20220111 08:00;1.6;2.2
H2S;uur;�g/m�;20220111 08:00;20220111 09:00;1.5;2.8
H2S;uur;�g/m�;20220111 09:00;20220111 10:00;1.5;1.8
H2S;uur;�g/m�;20220111 10:00;20220111 11:00;1.7;0.6
H2S;uur;�g/m�;20220111 11:00;20220111 12:00;1.3;4.6
H2S;uur;�g/m�;20220111 12:00;20220111 13:00;1.7;3.7
H2S;uur;�g/m�;20220111 13:00;20220111 14:00;1.6;5.2
H2S;uur;�g/m�;20220111 14:00;20220111 15:00;1.3;3.5
H2S;uur;�g/m�;20220111 15:00;20220111 16:00;1.3;1.3
H2S;uur;�g/m�;20220111 16:00;20220111 17:00;1.8;1.1
H2S;uur;�g/m�;20220111 17:00;20220111 18:00;1.6;
H2S;uur;�g/m�;20220111 18:00;20220111 19:00;1.5;3
H2S;uur;�g/m�;20220111 19:00;20220111 20:00;1.4;3
H2S;uur;�g/m�;20220111 20:00;20220111 21:00;1.6;1.3
H2S;uur;�g/m�;20220111 21:00;20220111 22:00;1.9;0.9
H2S;uur;�g/m�;20220111 22:00;20220111 23:00;1.1;1.2
H2S;uur;�g/m�;20220111 23:00;20220112 00:00;1.6;1.1
H2S;uur;�g/m�;20220112 00:00;20220112 01:00;1.4;0.9
H2S;uur;�g/m�;20220112 01:00;20220112 02:00;1.5;1.5
H2S;uur;�g/m�;20220112 02:00;20220112 03:00;1.2;1.4
H2S;uur;�g/m�;20220112 03:00;20220112 04:00;1.2;0.4
H2S;uur;�g/m�;20220112 04:00;20220112 05:00;1.6;0.3
H2S;uur;�g/m�;20220112 05:00;20220112 06:00;1.5;0.4
H2S;uur;�g/m�;20220112 06:00;20220112 07:00;1.5;0.4
H2S;uur;�g/m�;20220112 07:00;20220112 08:00;1.2;0.6
H2S;uur;�g/m�;20220112 08:00;20220112 09:00;1.8;0.6
H2S;uur;�g/m�;20220112 09:00;20220112 10:00;1.3;0.3
H2S;uur;�g/m�;20220112 10:00;20220112 11:00;0.9;0.4
H2S;uur;�g/m�;20220112 11:00;20220112 12:00;1.2;0.4
H2S;uur;�g/m�;20220112 12:00;20220112 13:00;1.2;0.5
H2S;uur;�g/m�;20220112 13:00;20220112 14:00;2.1;0.6
H2S;uur;�g/m�;20220112 14:00;20220112 15:00;1.3;0.7
H2S;uur;�g/m�;20220112 15:00;20220112 16:00;1.8;1
H2S;uur;�g/m�;20220112 16:00;20220112 17:00;1.6;1
H2S;uur;�g/m�;20220112 17:00;20220112 18:00;2;1.5
H2S;uur;�g/m�;20220112 18:00;20220112 19:00;1.1;1.1
H2S;uur;�g/m�;20220112 19:00;20220112 20:00;1.7;0.8
H2S;uur;�g/m�;20220112 20:00;20220112 21:00;1.3;2.1
H2S;uur;�g/m�;20220112 21:00;20220112 22:00;;2
H2S;uur;�g/m�;20220112 22:00;20220112 23:00;1.3;0.9
H2S;uur;�g/m�;20220112 23:00;20220113 00:00;1.5;0.8
H2S;uur;�g/m�;20220113 00:00;20220113 01:00;1.1;0.8
H2S;uur;�g/m�;20220113 01:00;20220113 02:00;1.2;0.8
H2S;uur;�g/m�;20220113 02:00;20220113 03:00;1.4;0.6
H2S;uur;�g/m�;20220113 03:00;20220113 04:00;1.4;0.8
H2S;uur;�g/m�;20220113 04:00;20220113 05:00;1.5;0.4
H2S;uur;�g/m�;20220113 05:00;20220113 06:00;1.6;1
H2S;uur;�g/m�;20220113 06:00;20220113 07:00;1.4;0.5
H2S;uur;�g/m�;20220113 07:00;20220113 08:00;1.1;0.6
H2S;uur;�g/m�;20220113 08:00;20220113 09:00;1.9;1.1
H2S;uur;�g/m�;20220113 09:00;20220113 10:00;1.4;0.5
H2S;uur;�g/m�;20220113 10:00;20220113 11:00;1.3;0.8
H2S;uur;�g/m�;20220113 11:00;20220113 12:00;0.9;0.7
H2S;uur;�g/m�;20220113 12:00;20220113 13:00;1.2;0.6
H2S;uur;�g/m�;20220113 13:00;20220113 14:00;1.4;0.6
H2S;uur;�g/m�;20220113 14:00;20220113 15:00;1.4;0.7
H2S;uur;�g/m�;20220113 15:00;20220113 16:00;1.3;0.6
H2S;uur;�g/m�;20220113 16:00;20220113 17:00;1.5;0.9
H2S;uur;�g/m�;20220113 17:00;20220113 18:00;1.1;1
H2S;uur;�g/m�;20220113 18:00;20220113 19:00;1.3;1.6
H2S;uur;�g/m�;20220113 19:00;20220113 20:00;0.9;
H2S;uur;�g/m�;20220113 20:00;20220113 21:00;1.6;0.7
H2S;uur;�g/m�;20220113 21:00;20220113 22:00;1.1;0.5
H2S;uur;�g/m�;20220113 22:00;20220113 23:00;1.4;0.7
H2S;uur;�g/m�;20220113 23:00;20220114 00:00;1.1;0.6
H2S;uur;�g/m�;20220114 00:00;20220114 01:00;1.4;0.8
H2S;uur;�g/m�;20220114 01:00;20220114 02:00;1.6;0.8
H2S;uur;�g/m�;20220114 02:00;20220114 03:00;1.6;0.5
H2S;uur;�g/m�;20220114 03:00;20220114 04:00;1.3;0.5
H2S;uur;�g/m�;20220114 04:00;20220114 05:00;1.1;1.2
H2S;uur;�g/m�;20220114 05:00;20220114 06:00;1.4;0.6
H2S;uur;�g/m�;20220114 06:00;20220114 07:00;1.4;0.5
H2S;uur;�g/m�;20220114 07:00;20220114 08:00;1.6;0.7
H2S;uur;�g/m�;20220114 08:00;20220114 09:00;1;0.6
H2S;uur;�g/m�;20220114 09:00;20220114 10:00;1.4;0.4
H2S;uur;�g/m�;20220114 10:00;20220114 11:00;1.7;0.3
H2S;uur;�g/m�;20220114 11:00;20220114 12:00;1.4;0.7
H2S;uur;�g/m�;20220114 12:00;20220114 13:00;1.7;0.3
H2S;uur;�g/m�;20220114 13:00;20220114 14:00;1.9;0.4
H2S;uur;�g/m�;20220114 14:00;20220114 15:00;2.2;0.5
H2S;uur;�g/m�;20220114 15:00;20220114 16:00;1.5;0.7
H2S;uur;�g/m�;20220114 16:00;20220114 17:00;1.6;0.7
H2S;uur;�g/m�;20220114 17:00;20220114 18:00;1.1;0.4
H2S;uur;�g/m�;20220114 18:00;20220114 19:00;1.3;0.8
H2S;uur;�g/m�;20220114 19:00;20220114 20:00;0.9;0.4
H2S;uur;�g/m�;20220114 20:00;20220114 21:00;1.2;0.4
H2S;uur;�g/m�;20220114 21:00;20220114 22:00;1.2;0.7
H2S;uur;�g/m�;20220114 22:00;20220114 23:00;1.1;0.6
H2S;uur;�g/m�;20220114 23:00;20220115 00:00;;0.7
H2S;uur;�g/m�;20220115 00:00;20220115 01:00;1.4;0.8
H2S;uur;�g/m�;20220115 01:00;20220115 02:00;1.2;0.9
H2S;uur;�g/m�;20220115 02:00;20220115 03:00;1.2;0.7
H2S;uur;�g/m�;20220115 03:00;20220115 04:00;0.8;0.5
H2S;uur;�g/m�;20220115 04:00;20220115 05:00;1.2;0.5
H2S;uur;�g/m�;20220115 05:00;20220115 06:00;1.4;0.3
H2S;uur;�g/m�;20220115 06:00;20220115 07:00;1.8;0.8
H2S;uur;�g/m�;20220115 07:00;20220115 08:00;1.4;1.5
H2S;uur;�g/m�;20220115 08:00;20220115 09:00;1.5;1
H2S;uur;�g/m�;20220115 09:00;20220115 10:00;1.6;1
H2S;uur;�g/m�;20220115 10:00;20220115 11:00;1.4;0.6
H2S;uur;�g/m�;20220115 11:00;20220115 12:00;1.9;1
H2S;uur;�g/m�;20220115 12:00;20220115 13:00;1.7;1.5
H2S;uur;�g/m�;20220115 13:00;20220115 14:00;1.8;1.3
H2S;uur;�g/m�;20220115 14:00;20220115 15:00;2;1
H2S;uur;�g/m�;20220115 15:00;20220115 16:00;1.8;2.6
H2S;uur;�g/m�;20220115 16:00;20220115 17:00;1.7;0.7
H2S;uur;�g/m�;20220115 17:00;20220115 18:00;1.8;1.4
H2S;uur;�g/m�;20220115 18:00;20220115 19:00;1.6;1.2
H2S;uur;�g/m�;20220115 19:00;20220115 20:00;1.8;2.2
H2S;uur;�g/m�;20220115 20:00;20220115 21:00;2.3;1.8
H2S;uur;�g/m�;20220115 21:00;20220115 22:00;1.7;
H2S;uur;�g/m�;20220115 22:00;20220115 23:00;1.8;1.1
H2S;uur;�g/m�;20220115 23:00;20220116 00:00;2.2;1.1
H2S;uur;�g/m�;20220116 00:00;20220116 01:00;1.4;0.8
H2S;uur;�g/m�;20220116 01:00;20220116 02:00;2.1;2
H2S;uur;�g/m�;20220116 02:00;20220116 03:00;1.1;0.3
H2S;uur;�g/m�;20220116 03:00;20220116 04:00;1.3;0.4
H2S;uur;�g/m�;20220116 04:00;20220116 05:00;1.4;0.6
H2S;uur;�g/m�;20220116 05:00;20220116 06:00;1.3;0.7
H2S;uur;�g/m�;20220116 06:00;20220116 07:00;0.8;0.6
H2S;uur;�g/m�;20220116 07:00;20220116 08:00;1.3;0.3
H2S;uur;�g/m�;20220116 08:00;20220116 09:00;1.7;0.5
H2S;uur;�g/m�;20220116 09:00;20220116 10:00;1.8;0.4
H2S;uur;�g/m�;20220116 10:00;20220116 11:00;1.8;0.5
H2S;uur;�g/m�;20220116 11:00;20220116 12:00;1.5;0.5
H2S;uur;�g/m�;20220116 12:00;20220116 13:00;1.1;0.4
H2S;uur;�g/m�;20220116 13:00;20220116 14:00;1.3;0.3
H2S;uur;�g/m�;20220116 14:00;20220116 15:00;1.1;0.4
H2S;uur;�g/m�;20220116 15:00;20220116 16:00;1.5;0.7
H2S;uur;�g/m�;20220116 16:00;20220116 17:00;1.3;0.6
H2S;uur;�g/m�;20220116 17:00;20220116 18:00;1.2;0.4
H2S;uur;�g/m�;20220116 18:00;20220116 19:00;1.3;0.5
H2S;uur;�g/m�;20220116 19:00;20220116 20:00;0.8;0.4
H2S;uur;�g/m�;20220116 20:00;20220116 21:00;1.4;0.6
H2S;uur;�g/m�;20220116 21:00;20220116 22:00;1.3;0.4
H2S;uur;�g/m�;20220116 22:00;20220116 23:00;1;0.5
H2S;uur;�g/m�;20220116 23:00;20220117 00:00;1.1;0.4
H2S;uur;�g/m�;20220117 00:00;20220117 01:00;1.1;0.3
H2S;uur;�g/m�;20220117 01:00;20220117 02:00;;0.3
H2S;uur;�g/m�;20220117 02:00;20220117 03:00;1;0.3
H2S;uur;�g/m�;20220117 03:00;20220117 04:00;0.9;0.6
H2S;uur;�g/m�;20220117 04:00;20220117 05:00;1.3;0.4
H2S;uur;�g/m�;20220117 05:00;20220117 06:00;1.2;0.3
H2S;uur;�g/m�;20220117 06:00;20220117 07:00;1.1;0.4
H2S;uur;�g/m�;20220117 07:00;20220117 08:00;1.1;0.4
H2S;uur;�g/m�;20220117 08:00;20220117 09:00;1;0.5
H2S;uur;�g/m�;20220117 09:00;20220117 10:00;1.6;0.6
H2S;uur;�g/m�;20220117 10:00;20220117 11:00;0.6;0.3
H2S;uur;�g/m�;20220117 11:00;20220117 12:00;0.7;0.4
H2S;uur;�g/m�;20220117 12:00;20220117 13:00;0.4;0.5
H2S;uur;�g/m�;20220117 13:00;20220117 14:00;0.7;0.3
H2S;uur;�g/m�;20220117 14:00;20220117 15:00;1.6;0.3
H2S;uur;�g/m�;20220117 15:00;20220117 16:00;2.4;0.4
H2S;uur;�g/m�;20220117 16:00;20220117 17:00;1.5;0.4
H2S;uur;�g/m�;20220117 17:00;20220117 18:00;1.3;0.6
H2S;uur;�g/m�;20220117 18:00;20220117 19:00;1.8;0.3
H2S;uur;�g/m�;20220117 19:00;20220117 20:00;0.7;0.5
H2S;uur;�g/m�;20220117 20:00;20220117 21:00;2.9;0.5
H2S;uur;�g/m�;20220117 21:00;20220117 22:00;0.7;0.4
H2S;uur;�g/m�;20220117 22:00;20220117 23:00;0.5;0.3
H2S;uur;�g/m�;20220117 23:00;20220118 00:00;0.5;
H2S;uur;�g/m�;20220118 00:00;20220118 01:00;0.3;0.9
H2S;uur;�g/m�;20220118 01:00;20220118 02:00;0.4;0.5
H2S;uur;�g/m�;20220118 02:00;20220118 03:00;0.7;0.6
H2S;uur;�g/m�;20220118 03:00;20220118 04:00;0.3;0.5
H2S;uur;�g/m�;20220118 04:00;20220118 05:00;0.5;0.6
H2S;uur;�g/m�;20220118 05:00;20220118 06:00;0.7;0.6
H2S;uur;�g/m�;20220118 06:00;20220118 07:00;0.6;0.8
H2S;uur;�g/m�;20220118 07:00;20220118 08:00;0.3;0.9
H2S;uur;�g/m�;20220118 08:00;20220118 09:00;0.3;0.7
H2S;uur;�g/m�;20220118 09:00;20220118 10:00;0.5;0.5
H2S;uur;�g/m�;20220118 10:00;20220118 11:00;0.5;0.5
H2S;uur;�g/m�;20220118 11:00;20220118 12:00;0.9;1.3
H2S;uur;�g/m�;20220118 12:00;20220118 13:00;0.8;2.6
H2S;uur;�g/m�;20220118 13:00;20220118 14:00;0.9;2.2
H2S;uur;�g/m�;20220118 14:00;20220118 15:00;0.9;1.2
H2S;uur;�g/m�;20220118 15:00;20220118 16:00;0.6;1.6
H2S;uur;�g/m�;20220118 16:00;20220118 17:00;0.9;0.6
H2S;uur;�g/m�;20220118 17:00;20220118 18:00;0.4;0.4
H2S;uur;�g/m�;20220118 18:00;20220118 19:00;0.6;0.6
H2S;uur;�g/m�;20220118 19:00;20220118 20:00;0.4;0.8
H2S;uur;�g/m�;20220118 20:00;20220118 21:00;0.6;0.7
H2S;uur;�g/m�;20220118 21:00;20220118 22:00;0.6;1.3
H2S;uur;�g/m�;20220118 22:00;20220118 23:00;0.9;0.6
H2S;uur;�g/m�;20220118 23:00;20220119 00:00;1;1.6
H2S;uur;�g/m�;20220119 00:00;20220119 01:00;1;0.9
H2S;uur;�g/m�;20220119 01:00;20220119 02:00;0.8;1.5
H2S;uur;�g/m�;20220119 02:00;20220119 03:00;0.5;0.8
H2S;uur;�g/m�;20220119 03:00;20220119 04:00;;1.1
H2S;uur;�g/m�;20220119 04:00;20220119 05:00;1.2;0.8
H2S;uur;�g/m�;20220119 05:00;20220119 06:00;0.5;0.4
H2S;uur;�g/m�;20220119 06:00;20220119 07:00;1.1;0.6
H2S;uur;�g/m�;20220119 07:00;20220119 08:00;0.6;1.2